Terminal Aerodrome Forecast
Issued by NWS

Home | Current Version | Previous Version | Graphics & Text | Print | Product List | Glossary On
Versions: 1 2 3 4 5 6 7 8 9 10 11 12 13 14 15 16
120
FTUS41 KCLE 171911 AAA
TAFFDY
TAF AMD
KFDY 171911Z 1719/1818 19012KT P6SM -SHRA VCTS BKN035CB OVC060
      TEMPO 1719/1720 20012G20KT 4SM SHRA OVC025
     FM172000 21012G22KT P6SM VCSH SCT040 BKN060
     FM172300 22010KT P6SM SCT050
     FM181400 25012KT P6SM BKN015
     FM181600 26014G22KT P6SM BKN030=

USA.gov is the U.S. government's official web portal to all federal, state and local government web resources and services.